Location: Lake Almanor
(40.2485°N, 121.1442°W)
Time: 08:30:26
(UTC-08:00)

STARLINK-1100 - Pass Details

Date: 04 February 2020
Orbit: 348 x 351 km, 53.0° (Epoch: 18 February)

Event Time Altitude Azimuth Distance (km) Brightness Sun altitude
Rises 18:18:06 0° 294° (WNW) 2,173 7.6 -10.3°
Reaches altitude 10° 18:20:35 10° 272° (W) 1,326 7.0 -10.7°
Maximum altitude 18:22:32 16° 230° (SW) 1,022 6.0 -11.1°
Drops below altitude 10° 18:24:29 10° 189° (S) 1,321 5.8 -11.4°
Sets 18:26:58 0° 166° (SSE) 2,160 6.6 -11.9°
